Regional Weather Roundup
Issued by NWS Green Bay, WI

Home | Current Version | Previous Version | Graphics & Text | Print | Product List | Glossary Off
Versions: 1 2 3 4 5 6 7 8 9 10 11 12 13 14 15 16 17 18 19 20 21 22 23 24 25 26 27 28 29 30 31 32 33 34 35 36 37 38 39 40 41 42 43 44 45 46 47 48 49 50

000
ASUS43 KGRB 010459
RWRGRB

NORTH-CENTRAL AND NORTHEAST WISCONSIN REGIONAL WEATHER ROUNDUP
NATIONAL WEATHER SERVICE GREEN BAY WI
1100 PM CST SAT JAN 31 2015

WIZ005-009-010>012-018-019-010600-
NORTH CENTRAL WISCONSIN

CITY           SKY/WX    TMP DP  RH WIND       PRES   REMARKS
IRONWOOD       CLOUDY    10   7  85 E9        30.28R WCI  -2
MANITOWISH WTR NOT AVBL
ARBOR VITAE    NOT AVBL
EAGLE RIVER    NOT AVBL
LAND O LAKES   NOT AVBL
RHINELANDER    CLOUDY    10   2  69 NE8       30.23R WCI  -2
PHILLIPS       NOT AVBL
ANTIGO         NOT AVBL
TOMAHAWK       NOT AVBL
MERRILL        NOT AVBL
$$

WIZ013-073-010600-
NORTHEAST WISCONSIN

CITY           SKY/WX    TMP DP  RH WIND       PRES   REMARKS
IRON MOUNTAIN  MOCLDY     7  -2  66 N8        30.28F WCI  -6
MARINETTE      CLOUDY    12   1  62 NE10      30.30S WCI  -1
$$

WIZ017-030-035>037-045-010600-
CENTRAL WISCONSIN

CITY           SKY/WX    TMP DP  RH WIND       PRES   REMARKS
MEDFORD        NOT AVBL
WAUSAU         CLOUDY    17   9  70 NE10G17   30.20R WCI   5
MOSINEE        NOT AVBL
MARSHFIELD     CLOUDY    20  11  68 NE14      30.19R WCI   7
WISC RAPIDS    CLOUDY    25  16  68 E10       30.21R
STEVENS POINT  NOT AVBL
WAUPACA        NOT AVBL
SHAWANO        NOT AVBL
CLINTONVILLE   NOT AVBL
$$

WIZ038-039-048-051-010600-
FOX VALLEY

CITY           SKY/WX    TMP DP  RH WIND       PRES   REMARKS
NWS GREEN BAY  FLURRIES  17  11  77 NE26G32   30.28R WCI  -2
APPLETON       CLOUDY    19  10  68 NE18G25   30.23R WCI   4
OSHKOSH        CLOUDY    22  15  75 NE15G23   30.22R WCI   9
FOND DU LAC    CLOUDY    24  17  74 NE15G23   30.22R
$$

WIZ022-050-052-010600-
EAST CENTRAL WISCONSIN

CITY           SKY/WX    TMP DP  RH WIND       PRES   REMARKS
STURGEON BAY   CLOUDY    14   3  62 N12G18    30.30R WCI   0
MANITOWOC      NOT AVBL
SHEBOYGAN      CLOUDY    25  19  78 NE21G29   30.22R
$$

LMZ563-521-522-541>543-010600-
LAKESHORE

STATION/POSITION TIME  TEMP    WIND        PRES    VSBY  WAVE
                       AIR SEA DIR/SP/G                  HT/PER
                 (UTC) (F)     (DEG/KT/KT) (MB)    (MI)  (FT/S)
SHEBOYGAN LKSHOR 0400   27      30/ 25/ 28 1023.7F
KEWAUNEE LKSHORE 0400   21      40/ 22/ 27 1023.7R
NORTHPORT PIER   0400   15     360/ 18/ 23 1026.4S
SISTER BAY LKSHO 0400   15      10/ 20/ 26   N/A
CHAMBERS ISLAND  0400   15     360/ 19/ 23 1026.1R
MENOMINEE LKSHOR 0400   14      10/ 14     1026.6S
$$



USA.gov is the U.S. government's official web portal to all federal, state and local government web resources and services.